Temp
86 90 90 89 93 93 94 94 92 91 91 90 91 90 90 92 93 92 92 89 88 93
86 86 89 90 89 93 91 94 91 91 90 90 90 90 89 92 90 90 90 90 91 90
87 87 88 88 87 89 90 90 90 90 90 90 90 89 88 91 91 88 91 93 89 89
88 89 88 89 88 86 87 87 88 88 89 89 89 89 88 88 89 88 88 89 88 88
87 87 88 88 88 89 87 88 86 88 88 88 89 88 88 88 91 89 88 89 88 88
87 87 86 88 87 87 87 87 88 86 86 88 88 89 89 88 88 89 89 89 88 88
86 86 88 87 86 86 86 86 87 86 87 87 88 88 89 89 88 88 90 89 89 89
84 84 84 86 86 86 87 87 85 84 86 86 87 89 86 88 87 87 87 89 89 90
77 83 81 82 83 85 85 86 86 84 82 83 85 65 67 74 85 83 83 86 87 88
73 75 74 75 75 80 83 86 84 84 84 82 76 63 65 68 83 81 82 80 81 83
79 77 71 71 71 74 78 78 80 81 83 80 69 59 59 63 81 81 76 74 75 80
75 74 72 70 68 68 69 70 70 71 70 70 75 56 57 62 80 78 73 73 74 75
69 70 68 67 67 65 65 65 66 65 65 62 67 57 56 62 82 78 76 71 68 59
69 70 67 66 67 65 62 61 62 61 63 63 57 60 55 56 72 79 79 77 74 71
MSLP
1018.71 1018.49 1018.64 1018.60 1018.06 1018.35 1018.15 1018.29 1018.67 1019.18 1019.32 1019.50 1019.66 1019.69 1019.79 1019.58 1019.48 1019.64 1019.64 1019.84 1019.92 1019.19
1018.49 1018.56 1018.16 1018.21 1018.65 1018.40 1018.55 1018.33 1018.73 1018.94 1019.11 1019.27 1019.42 1019.60 1019.67 1019.55 1019.68 1019.72 1019.69 1019.64 1019.71 1019.64
1017.96 1018.27 1018.34 1018.52 1018.66 1018.47 1018.45 1018.57 1018.68 1018.84 1018.95 1019.13 1019.22 1019.43 1019.63 1019.38 1019.44 1019.77 1019.54 1019.31 1019.68 1019.75
1017.45 1017.69 1017.99 1018.05 1018.28 1018.61 1018.77 1018.70 1018.57 1018.84 1018.88 1018.86 1019.01 1019.12 1019.44 1019.57 1019.53 1019.55 1019.57 1019.67 1019.65 1019.65
1017.17 1017.43 1017.52 1017.79 1017.99 1018.29 1018.42 1018.34 1018.59 1018.62 1018.84 1018.94 1018.95 1019.09 1019.26 1019.38 1019.00 1019.11 1019.29 1019.40 1019.49 1019.53
1016.67 1017.02 1017.27 1017.42 1017.76 1017.98 1018.12 1018.24 1018.25 1018.57 1018.65 1018.69 1018.71 1018.78 1018.86 1019.12 1019.14 1019.03 1019.00 1019.12 1019.31 1019.51
1016.08 1016.57 1016.90 1017.22 1017.55 1017.68 1017.82 1017.90 1017.99 1018.29 1018.41 1018.58 1018.69 1018.80 1018.83 1018.78 1018.94 1019.00 1018.82 1018.99 1019.07 1019.19
1015.73 1016.45 1016.89 1017.07 1017.22 1017.53 1017.60 1017.61 1017.83 1018.01 1018.10 1018.37 1018.53 1018.57 1018.86 1018.85 1018.78 1018.70 1018.75 1018.75 1018.89 1018.96
1016.10 1016.34 1016.89 1017.18 1017.37 1017.44 1017.54 1017.51 1017.61 1017.86 1018.04 1018.18 1018.66 1019.29 1019.20 1019.09 1018.79 1018.92 1018.84 1018.62 1018.81 1018.98
1016.56 1016.66 1017.07 1017.42 1017.95 1017.61 1017.44 1017.31 1017.65 1017.83 1018.05 1018.45 1019.23 1019.60 1019.64 1019.42 1018.92 1018.80 1018.68 1018.86 1018.95 1019.16
1016.44 1016.81 1017.60 1017.84 1018.14 1018.10 1017.95 1017.79 1017.78 1018.28 1018.42 1018.84 1020.11 1020.19 1020.02 1019.68 1019.09 1018.87 1019.12 1019.14 1019.04 1018.96
1017.10 1017.46 1017.81 1018.15 1018.66 1018.79 1018.81 1018.85 1019.33 1019.46 1019.50 1019.67 1020.14 1020.66 1020.34 1019.90 1019.19 1019.16 1019.35 1019.58 1019.64 1019.86
1017.97 1018.21 1018.44 1018.71 1018.97 1019.05 1019.15 1019.67 1020.21 1020.42 1020.62 1020.73 1020.66 1020.90 1020.59 1020.37 1019.08 1018.99 1019.34 1019.86 1020.15 1020.76
1018.66 1018.70 1019.05 1019.31 1019.59 1019.70 1019.76 1020.07 1020.54 1020.94 1020.99 1021.08 1021.46 1021.44 1021.02 1020.44 1019.87 1018.85 1019.10 1019.78 1020.66 1021.18
Wind_Speed
9 7 8 8 5 7 5 4 4 5 5 6 5 4 4 6 4 1 3 4 4 5
9 10 8 6 6 6 5 4 6 7 6 6 6 6 4 6 4 3 4 3 0 5
10 11 10 8 9 7 5 6 5 7 7 8 7 7 6 5 6 4 5 4 2 5
10 10 10 10 9 7 8 8 8 7 8 8 8 8 7 7 6 6 5 4 5 6
11 10 11 10 9 9 9 9 8 7 9 9 8 6 9 9 9 6 6 6 5 6
12 11 11 11 10 10 9 9 9 8 8 8 8 8 7 8 9 8 7 5 6 6
13 12 11 10 10 9 10 9 9 6 7 7 6 6 7 5 6 7 8 8 8 6
10 9 9 8 8 8 8 7 6 6 6 5 5 2 4 5 5 7 8 8 7 8
7 9 6 5 7 8 8 7 6 6 4 4 2 4 2 3 5 5 7 8 7 7
4 4 5 5 3 8 8 8 7 6 5 5 7 6 5 4 4 5 5 4 4 5
7 7 4 4 2 3 5 3 3 3 2 5 7 9 9 8 5 3 5 4 3 2
3 4 5 5 6 6 5 7 6 5 8 9 4 12 12 9 2 2 3 4 4 6
5 4 5 5 5 3 4 6 3 5 6 4 6 10 11 9 5 4 4 5 7 8
5 5 5 4 2 3 5 5 4 4 5 7 7 7 9 5 5 3 3 4 3 5
Wind_Direction
225 220 225 207 235 218 232 217 157 203 220 210 219 248 288 261 278 103 322 354 1 329
210 236 229 244 217 226 240 244 219 227 226 230 228 229 239 254 260 284 269 336 303 284
214 214 219 216 231 248 249 239 249 230 230 226 228 232 225 245 201 253 277 263 316 297
218 221 221 225 227 239 251 247 232 242 245 235 230 231 224 256 280 248 263 284 258 275
219 225 224 230 234 234 241 248 256 240 236 245 248 244 239 240 274 235 254 259 278 278
217 223 227 228 227 243 241 243 248 244 249 251 245 251 236 229 249 252 254 258 266 268
212 219 224 228 234 227 232 241 243 248 248 248 247 262 267 237 239 256 252 245 264 277
223 220 222 234 237 237 234 240 240 235 243 253 242 267 255 256 255 250 249 253 246 252
259 216 219 241 247 242 253 238 231 225 218 217 134 124 119 283 252 249 267 256 260 259
167 134 142 137 300 271 253 237 231 224 218 156 103 27 358 307 266 269 234 228 236 263
186 158 104 74 60 3 332 291 243 175 170 125 72 35 4 317 274 271 258 262 321 223
145 135 118 100 68 42 52 37 37 33 40 3 61 17 352 324 284 70 74 65 74 144
93 115 112 107 109 96 81 70 54 64 56 34 2 27 350 315 267 201 147 140 113 47
84 80 79 71 37 97 104 117 109 86 61 64 32 20 353 347 270 272 181 142 101 72